This is the latest recevied weather packets stored in our database for station/object W9LRT-WX. If no packets are shown the sender has not sent any weather packets the latest 10 day(s).
| Time | Temp. | Humidity | Pressure | Rain* | Wind** | Luminosity | Snow |
|---|---|---|---|---|---|---|---|
| 1777702750 | 0.56° C | 83% | 1017.4 hPa | 0 mm | - | 0 W/m² | - |
| 1777701850 | 0.56° C | 82% | 1017.5 hPa | 0 mm | - | 0 W/m² | - |
| 1777700949 | 1.11° C | 81% | 1017.5 hPa | 0 mm | - | 0 W/m² | - |
| 1777700048 | 1.11° C | 80% | 1017.7 hPa | 0 mm | - | 0 W/m² | - |
| 1777699141 | 1.67° C | 79% | 1017.8 hPa | 0 mm | - | 0 W/m² | - |
| 1777698242 | 1.67° C | 78% | 1017.8 hPa | 0 mm | - | 0 W/m² | - |
| 1777697342 | 2.22° C | 77% | 1017.9 hPa | 0 mm | - | 0 W/m² | - |
| 1777696442 | 2.22° C | 77% | 1017.9 hPa | 0 mm | - | 0 W/m² | - |
| 1777695543 | 2.22° C | 75% | 1017.8 hPa | 0 mm | - | 0 W/m² | - |
| 1777694639 | 2.78° C | 74% | 1017.8 hPa | 0 mm | - | 0 W/m² | - |
| 1777693739 | 2.78° C | 73% | 1017.6 hPa | 0 mm | - | 0 W/m² | - |
| 1777692841 | 2.78° C | 72% | 1017.4 hPa | 0 mm | - | 0 W/m² | - |
| 1777691939 | 2.78° C | 74% | 1017.4 hPa | 0 mm | - | 0 W/m² | - |
| 1777691037 | 3.33° C | 73% | 1017.3 hPa | 0 mm | - | 0 W/m² | - |
| 1777690133 | 3.89° C | 71% | 1017 hPa | 0 mm | - | 0 W/m² | - |
| 1777689236 | 3.89° C | 69% | 1016.8 hPa | 0 mm | - | 0 W/m² | - |
| 1777688333 | 4.44° C | 68% | 1016.8 hPa | 0 mm | - | 0 W/m² | - |
| 1777687433 | 4.44° C | 67% | 1016.7 hPa | 0 mm | - | 0 W/m² | - |
| 1777686534 | 5° C | 65% | 1016.6 hPa | 0 mm | - | 0 W/m² | - |
| 1777685633 | 5° C | 65% | 1016.4 hPa | 0 mm | - | 0 W/m² | - |
| 1777684734 | 5.56° C | 64% | 1016.2 hPa | 0 mm | - | 0 W/m² | - |
| 1777683829 | 5.56° C | 64% | 1016 hPa | 0 mm | - | 0 W/m² | - |
| 1777682929 | 6.11° C | 62% | 1015.9 hPa | 0 mm | - | 0 W/m² | - |
| 1777682030 | 6.11° C | 61% | 1015.9 hPa | 0 mm | - | 7 W/m² | - |
| 1777681129 | 6.67° C | 59% | 1015.8 hPa | 0 mm | - | 16 W/m² | - |
* Rain latest hour (hover to see other rain measurements)
** Current wind speed in m/s (hover to see current wind gust speed)